Location: Grassland Mountain Observatory
(35.7543°N, 82.8038°W)
Time: 16:45:43
(UTC-05:00)

X-37B - Pass Details

Date: 08 December 2021
Orbit: 331 x 339 km, 45.0° (Epoch: 27 January)

Event Time Altitude Azimuth Distance (km) Brightness Sun altitude
Rises 18:37:21 0° 270° (W) 2,091 5.8 -15.8°
Reaches altitude 10° 18:39:35 10° 286° (WNW) 1,256 4.0 -16.2°
Maximum altitude 18:41:54 22° 341° (NNW) 777 2.1 -16.7°
Enters shadow 18:42:19 22° 356° (N) 798 2.0 -16.7°
